GW3496 Weather Reports


Display with metric or nautical units.
time (UTC)temp
F
wind
direction
speed
MPH
gust
MPH
rain 1hr
in
rain 24hr
in
rain mn
in
humidity
%
barometer
mb
20260506001529 78 202 9.0 16.0 0.00 0.00 0.00 38 1008.5
20260506000030 79 202 10.0 19.0 0.00 0.00 0.00 37 1008.5
20260505234529 80 190 9.0 17.0 0.00 0.00 0.00 36 1008.2
20260505233030 80 212 10.0 21.0 0.00 0.00 0.00 35 1008.0
20260505231531 80 182 14.0 21.0 0.00 0.00 0.00 33 1007.8
20260505230027 81 247 10.0 22.0 0.00 0.00 0.00 32 1007.9
20260505224530 82 198 15.0 22.0 0.00 0.00 0.00 31 1008.4
20260505223037 83 206 12.0 26.0 0.00 0.00 0.00 29 1008.0
20260505221528 83 235 16.0 25.0 0.00 0.00 0.00 28 1007.7
20260505220047 83 215 11.0 30.0 0.00 0.00 0.00 30 1007.8
20260505214535 83 232 12.0 21.0 0.00 0.00 0.00 29 1008.0
20260505213033 83 248 13.0 24.0 0.00 0.00 0.00 28 1007.9
20260505211531 84 223 19.0 31.0 0.00 0.00 0.00 26 1007.7
20260505210030 84 237 11.0 27.0 0.00 0.00 0.00 27 1007.8
20260505204530 84 217 17.0 33.0 0.00 0.00 0.00 26 1007.7
20260505203029 85 217 12.0 27.0 0.00 0.00 0.00 27 1007.8
20260505201532 84 199 14.0 28.0 0.00 0.00 0.00 28 1007.9
20260505200039 84 225 22.0 34.0 0.00 0.00 0.00 27 1007.9
20260505194538 84 220 10.0 26.0 0.00 0.00 0.00 28 1008.1
20260505193041 83 201 15.0 33.0 0.00 0.00 0.00 29 1008.1
20260505191537 83 212 16.0 32.0 0.00 0.00 0.00 28 1008.5
20260505190030 83 248 14.0 23.0 0.00 0.00 0.00 28 1009.1
20260505184533 83 252 10.0 27.0 0.00 0.00 0.00 30 1009.1
20260505183036 82 224 20.0 35.0 0.00 0.00 0.00 31 1009.1
20260505181541 82 177 17.0 25.0 0.00 0.00 0.00 31 1009.2
20260505180034 82 182 13.0 25.0 0.00 0.00 0.00 33 1009.6
20260505174533 82 194 12.0 28.0 0.00 0.00 0.00 34 1009.6
20260505173032 81 208 13.0 26.0 0.00 0.00 0.00 34 1009.7
20260505171532 81 198 11.0 18.0 0.00 0.00 0.00 35 1009.7
20260505170034 80 234 8.0 15.0 0.00 0.00 0.00 37 1009.8
20260505164530 80 244 15.0 25.0 0.00 0.00 0.00 37 1010.2
20260505163032 79 250 10.0 17.0 0.00 0.00 0.00 40 1010.6
20260505161542 78 241 14.0 24.0 0.00 0.00 0.00 40 1010.8
20260505153033 78 208 5.0 16.0 0.00 0.00 0.00 43 1011.2
20260505151529 76 240 10.0 24.0 0.00 0.00 0.00 44 1011.1
20260505124536 66 213 3.0 19.0 0.00 0.00 0.00 57 1011.2
20260505123035 65 185 7.0 14.0 0.00 0.00 0.00 57 1011.0
20260505121538 64 155 7.0 13.0 0.00 0.00 0.00 59 1011.0
20260505120043 64 220 8.0 14.0 0.00 0.00 0.00 59 1011.2
20260505114538 63 208 5.0 10.0 0.00 0.00 0.00 60 1010.9
20260505113036 63 230 4.0 12.0 0.00 0.00 0.00 61 1010.7
20260505111534 62 236 6.0 9.0 0.00 0.00 0.00 61 1010.5
20260505101542 62 192 1.0 7.0 0.00 0.00 0.00 61 1010.1
20260505100035 62 188 4.0 10.0 0.00 0.00 0.00 60 1010.0
20260505094541 62 215 6.0 13.0 0.00 0.00 0.00 60 1010.1
20260505093040 63 189 6.0 10.0 0.00 0.00 0.00 59 1009.8
20260505091539 63 190 7.0 12.0 0.00 0.00 0.00 58 1009.9
20260505090045 63 196 7.0 16.0 0.00 0.00 0.00 58 1009.7
20260505084550 63 232 8.0 17.0 0.00 0.00 0.00 57 1009.7
20260505083048 63 179 8.0 12.0 0.00 0.00 0.00 56 1009.6
20260505081552 63 193 8.0 17.0 0.00 0.00 0.00 56 1009.5
20260505080048 63 198 7.0 13.0 0.00 0.00 0.00 56 1009.4
20260505074538 63 200 6.0 15.0 0.00 0.00 0.00 55 1009.5
20260505073044 64 201 7.0 15.0 0.00 0.00 0.00 55 1009.5
20260505071545 64 198 6.0 11.0 0.00 0.00 0.00 55 1009.4
20260505070044 64 216 6.0 11.0 0.00 0.00 0.00 55 1009.4
20260505064541 64 232 7.0 12.0 0.00 0.00 0.00 55 1009.1
20260505063040 64 204 6.0 12.0 0.00 0.00 0.00 55 1009.3
20260505061551 65 192 6.0 12.0 0.00 0.00 0.00 54 1009.4
20260505060034 65 229 8.0 13.0 0.00 0.00 0.00 53 1009.3
20260505054530 65 209 8.0 11.0 0.00 0.00 0.00 53 1009.1
20260505053035 65 231 7.0 14.0 0.00 0.00 0.00 53 1009.0
20260505051531 66 188 5.0 11.0 0.00 0.00 0.00 53 1009.1
20260505041533 67 216 7.0 12.0 0.00 0.00 0.00 51 1008.9
20260505040039 68 215 5.0 11.0 0.00 0.00 0.00 50 1008.9
20260505034533 68 234 5.0 12.0 0.00 0.00 0.00 50 1009.1
20260505033039 68 227 5.0 10.0 0.00 0.00 0.00 50 1009.0
20260505031550 69 254 5.0 12.0 0.00 0.00 0.00 49 1009.2
20260505030035 69 190 5.0 12.0 0.00 0.00 0.00 49 1009.3
20260505024545 69 213 5.0 9.0 0.00 0.00 0.00 48 1009.2
20260505023040 69 211 6.0 11.0 0.00 0.00 0.00 48 1009.0
20260505021536 70 192 4.0 8.0 0.00 0.00 0.00 47 1009.1
20260505020041 70 205 4.0 7.0 0.00 0.00 0.00 46 1009.0
20260505014559 71 193 3.0 6.0 0.00 0.00 0.00 45 1008.8
20260505013034 71 205 3.0 7.0 0.00 0.00 0.00 44 1008.7
20260505011540 72 182 3.0 6.0 0.00 0.00 0.00 42 1008.7
20260505010033 73 195 6.0 12.0 0.00 0.00 0.00 41 1008.6
20260505004535 73 217 6.0 9.0 0.00 0.00 0.00 40 1008.5
20260505003035 74 183 7.0 12.0 0.00 0.00 0.00 39 1008.2